User: anonymous
Location: Unspecified
(0.0000°N, 0.0000°E)
Time: 07:07:05
(UTC+02:00)
Language:

Cosmos 1300 - Orbit

View from above orbital plane
View from above orbital plane
View from above satellite
View from above satellite

Ground track
Ground track

The orbit data is extracted from the following two-line orbital elements,

1 12785U 81082A   14237.76230006  .00003014  00000-0  17668-3 0  7934
2 12785 082.5091 005.2774 0001688 150.6026 354.0848 15.11449461796435
Epoch (UTC): 25 August 2014 18:17:42
Eccentricity: 0.0001688
inclination: 82.5091°
perigee height: 530 km
apogee height: 533 km
right ascension of ascending node: 5.2774°
argument of perigee: 150.6026°
revolutions per day: 15.11449461
mean anomaly at epoch: 354.0848°
orbit number at epoch: 79643

The dashed part of the orbit path shows where the satellite is in the earth's shadow,  

DLR